203  
ASUS44 KLIX 160110  
RWRLIX  
NEW ORLEANS REGIONAL WEATHER ROUNDUP  
NATIONAL WEATHER SERVICE NEW ORLEANS LA  
800 PM CDT MON OCT 15 2018  
 
NOTE: "FAIR" INDICATES FEW OR NO CLOUDS BELOW 12,000 FEET WITH NO  
SIGNIFICANT WEATHER AND/OR S TO VISIBILITY
.  
SKY/WX - SKY CONDITION AND SIGNIFICANT WEATHER.  
TMP - AIR TEMPERATURE. DP - DEWPOINT TEMPERATURE.  
RH - RELATIVE HUMIDITY. PRES - PRESSURE.  
HI - HEAT INDEX. WCI - WIND CHILL INDEX.  
 
* THESE STATIONS ARE NOT NWS OR FAA STATIONS AND ARE NOT UNDER  
NWS QUALITY CONTROL.  
 
LAZ038-040-048-061>063-065>067-069-160200-  
SOUTHEAST LOUISIANA  
 
CITY SKY/WX TMP DP RH WIND PRES REMARKS
 
N.O. INTL ARPT CLOUDY 79 76 90 NE14 30.04S  
N.O. LAKEFRONT FAIR 77 74 90 N14 30.05R  
N.O. DOWNTOWN* LGT RAIN 78 74 87 N7 30.06R  
RESERVE* MOCLDY 77 73 88 E7 30.04S  
SLIDELL CLOUDY 75 73 93 N6 30.06R  
BATON ROUGE RAIN 76 75 97 E3 30.04S FOG  
BOOTHVILLE FAIR 82 76 81 SE6 30.04S  
BELLE CHASSE NOT AVBL  
BOGALUSA* LGT RAIN 74 71 88 N5 30.09R  
GALLIANO* CLOUDY 79 73 83 CALM 30.03R  
NEW ROADS* CLOUDY 77 72 83 SE6 30.07R  
GONZALES* TSTM 74 72 93 N3 30.04R  
HAMMOND* CLOUDY 73 72 94 E6 30.05S  
HOUMA* CLOUDY 79 76 92 E5 30.02R  
PORT FOURCHON* CLOUDY 81 77 89 SE12 30.03R  
 

 
 
MSZ070-080>082-160200-  
SOUTHERN MISSISSIPPI  
 
CITY SKY/WX TMP DP RH WIND PRES REMARKS
 
MCCOMB MOCLDY 75 69 81 CALM 30.08R  
GULFPORT MOCLDY 82 77 84 E5 30.06R  
BILOXI CLOUDY 81 77 86 SE3 30.06R  
PASCAGOULA MOCLDY 79 76 90 E3 30.06R  
 

 
 
COASTAL OBSERVATIONS  
LAKE AND NEARSHORE STATIONS  
 
STATION/POSITION TIME SKY/WX TEMP WIND PRES WAVE
 
AIR SEA DIR/SP/G HT/PER  
(UTC) (F) (DEG/KT/KT) (MB) (FT/S)  
WAVELAND YACHT 2348 81 81 130/ 3/ 5 1017.5  
GRAND ISLE 2348 78 81 160/ 8/ 14 1016.8  
SOUTHWEST PASS 2348 130/ 9/ 11 N/A  
SHELL BEACH 2348 81 82 130/ 7/ 9 1017.2  
 
OFFSHORE STATIONS  
 
STATION/POSITION TIME SKY/WX TEMP WIND PRES WAVE
 
AIR SEA DIR/SP/G HT/PER  
(UTC) (F) (DEG/KT/KT) (MB) (FT/S)  
64 S DAUPHIN ISL 0050 83 110/ 10/ 12 1018.0 3/ 5  
 

 
 
 
 
CLICK HERE TO GO TO PREVIOUS BULLETINS.

The Nexlab LA Page
The Nexlab MS Page Main Text Page